SCP
-0 -0 -0 -0 -0 -0 -0 -0 -0 -0 -0 0 0 0 0 0 -0 -0 -0 0 0 0 0 0 0 0 0 0 0 0 0 0 0 0 0 0 0 0 0 0 0 0 0
-0 -0 -0 -0 -0 -0 -0 -0 -0 -0 -0 -0 0 0 0 0 0 0 0 0 0 0 0 0 0 0 0 0 0 0 0 0 0 0 0 0 0 0 0 0 0 0 0
-0 -0 -0 -0 -0 -0 -0 -0 -0 -0 -0 -0 0 0 0 0 0 0 0 0 0 0 0 0 0 0 0 0 0 0 0 0 0 0 0 0 0 -0 0 0 0 0 0
-1 -0 -0 -0 -0 -0 -0 -0 -0 -0 0 0 0 0 0 0 0 0 0 0 0 0 0 0 0 0 0 0 0 0 0 0 0 0 0 0 0 0 -0 0 0 0 0
-1 -1 -1 -0 -0 -0 -0 0 0 0 0 0 0 0 0 0 0 0 0 0 0 0 0 0 0 0 0 0 0 0 0 0 0 0 0 0 0 0 0 0 0 0 0
-1 -1 -1 -0 -0 -0 0 0 0 0 0 0 0 0 0 0 0 0 0 0 0 0 0 0 0 0 0 0 0 0 0 0 0 0 0 0 0 0 0 0 0 0 0
-1 -0 -0 -0 -0 -0 -0 0 0 0 0 0 0 0 0 0 0 0 0 0 0 0 0 0 0 0 0 0 0 0 0 0 0 0 0 0 0 0 0 0 0 0 0
-0 -0 -0 -0 -1 -1 -0 1 1 0 0 0 0 0 0 0 0 0 0 0 0 0 0 0 0 0 0 0 0 0 0 0 0 0 0 0 0 0 0 0 0 0 0
-0 -0 -0 -0 -1 -0 -0 -0 1 1 0 0 0 0 0 0 0 0 0 0 0 0 0 0 0 0 0 0 0 0 0 0 0 0 0 0 0 0 0 0 0 0 0
-0 0 -0 -0 -1 -3 -2 0 1 0 0 0 0 0 0 0 0 0 0 0 0 0 0 0 0 0 0 0 0 0 0 0 0 0 0 0 0 0 0 0 0 0 0
-0 -0 -0 -0 -1 -1 -2 0 1 1 0 0 0 0 0 0 0 0 0 0 0 0 0 0 0 0 0 0 0 0 0 0 0 0 0 0 0 0 0 0 0 0 0
0 0 -0 -0 -0 0 1 1 2 1 0 0 0 0 0 0 0 0 0 0 0 0 0 0 0 0 0 0 0 0 0 0 0 0 0 0 0 0 0 0 0 0 0
0 0 0 0 0 1 3 3 2 1 1 0 0 0 0 0 0 0 0 0 0 0 0 0 0 0 0 0 0 0 0 0 0 0 0 0 0 0 0 0 0 0 0
0 0 0 0 1 1 1 3 3 2 1 0 0 0 0 0 0 0 0 0 0 0 0 0 0 0 0 0 0 0 0 0 0 0 0 0 0 0 0 0 0 0 0
0 0 0 0 1 3 3 4 3 2 1 1 1 0 0 0 0 0 0 0 0 0 0 0 0 0 0 0 0 0 0 0 0 0 0 0 0 0 0 0 0 0 0
0 0 0 0 0 3 2 3 3 2 1 0 0 0 0 0 0 0 0 0 0 0 0 0 0 0 0 0 0 0 0 0 0 0 0 0 0 0 0 0 0 0 0
0 0 1 1 1 2 4 2 2 1 1 1 0 0 0 0 0 0 0 0 0 0 0 0 0 0 0 0 0 0 0 0 0 0 0 0 0 0 0 0 0 0 0
0 0 0 0 1 2 3 3 0 1 1 0 0 0 0 0 0 0 0 0 0 0 0 0 0 0 0 0 0 0 0 0 0 0 0 0 0 0 0 0 0 0 0
0 0 0 0 1 2 2 2 0 1 0 0 0 0 0 0 0 0 0 0 0 0 0 0 0 0 0 0 0 0 0 0 0 0 0 0 0 0 0 0 0 0 0
0 0 0 0 2 3 3 2 1 0 0 0 0 0 0 0 0 0 1 1 1 1 0 0 0 0 0 0 0 0 0 0 0 0 0 0 0 0 0 0 0 0 0
0 0 1 1 2 2 2 2 1 1 0 0 0 0 0 0 1 1 1 1 1 0 0 0 0 0 0 0 0 0 0 0 0 0 0 0 0 0 0 0 0 0 0
0 1 2 2 2 2 1 0 0 0 0 0 0 -0 -0 0 1 1 1 0 0 0 0 0 0 0 0 0 0 0 0 0 0 0 0 0 0 0 0 0 0 0 0
1 1 0 0 1 0 0 0 0 0 0 0 0 0 0 -0 0 0 0 0 0 0 0 0 0 0 0 0 0 0 0 0 0 0 0 0 0 0 0 0 0 0 0
0 0 0 0 0 0 0 0 0 0 0 0 0 0 0 0 0 0 0 0 0 0 0 0 0 0 0 0 0 0 0 0 0 0 0 0 0 0 0 0 0 0 0
0 0 0 0 0 0 0 0 0 0 0 0 0 -0 -0 0 0 0 0 0 0 0 0 0 0 0 0 0 0 0 0 0 0 0 0 0 0 0 0 0 0 0 0
0 0 0 0 0 0 0 0 0 0 0 0 0 -0 -0 0 0 0 0 0 0 0 0 0 0 0 0 0 0 0 0 0 0 0 0 0 0 0 0 0 0 0 0
Wind_Speed_500mb
70 64 56 51 45 43 44 42 41 27 30 29 23 19 16 17 20 19 21 27 27 18 18 13 14 23 33 29 28 32 34 32 30 42 41 33 21 17 13 14 15 27 43
70 68 59 56 52 50 45 49 38 34 29 25 19 17 14 15 16 14 15 18 17 17 16 23 31 27 26 26 28 24 23 27 30 32 34 22 21 5 17 17 25 25 24
76 70 63 59 57 57 45 44 41 39 35 29 24 21 17 16 17 16 14 19 16 18 22 23 26 27 19 17 23 27 25 24 25 23 17 11 10 46 28 24 21 23 23
81 76 70 63 56 59 51 47 40 39 36 31 31 27 21 22 22 17 20 21 21 21 19 22 16 3 18 28 20 19 20 19 20 18 17 16 19 18 24 34 33 32 28
89 87 82 72 63 60 58 45 39 41 36 36 31 25 27 29 29 26 24 24 24 20 13 15 10 19 28 24 14 15 14 14 13 15 17 18 18 17 24 33 45 36 33
99 94 86 76 69 66 61 51 47 47 43 37 28 28 30 29 30 32 30 28 31 23 14 15 17 25 29 13 12 11 14 12 12 15 15 15 16 20 22 31 38 42 39
102 101 93 87 79 76 75 63 59 57 51 42 34 31 31 30 29 33 36 35 27 20 19 18 22 26 14 10 6 9 13 15 14 11 12 16 20 22 24 31 34 42 45
101 109 103 98 93 90 86 79 70 69 60 52 46 38 28 21 21 23 20 20 18 23 26 25 22 16 17 14 12 11 13 18 20 20 22 23 25 28 28 30 35 39 43
93 97 110 103 99 99 94 91 83 76 69 62 55 42 24 20 20 17 17 20 25 26 22 21 21 24 21 16 18 17 18 22 26 29 31 30 30 29 28 28 30 37 40
89 99 110 104 100 106 104 98 92 82 75 63 57 42 29 23 21 20 19 22 26 23 23 24 21 17 16 19 20 21 22 24 25 28 29 27 33 32 33 32 32 32 40
96 103 99 109 104 111 111 110 102 89 80 70 62 52 40 31 21 18 18 19 18 18 18 18 18 19 18 19 24 24 23 25 27 27 28 30 32 36 39 39 39 37 42
88 98 105 108 114 115 114 117 109 98 85 75 67 58 46 34 21 19 18 15 13 15 16 18 17 17 19 19 20 18 20 24 29 28 29 34 37 40 42 44 46 45 44
65 83 93 104 108 114 113 120 114 103 89 76 67 63 55 38 24 24 22 16 16 16 19 18 16 17 19 18 18 21 26 29 31 28 31 33 36 43 44 47 49 46 47
69 76 88 95 102 109 112 117 114 106 95 81 66 70 59 40 29 23 21 21 20 21 21 21 18 20 24 25 23 25 28 28 25 33 30 34 39 41 43 47 48 48 50
70 80 80 91 96 100 106 110 112 110 97 86 71 74 57 45 37 28 24 25 27 24 21 22 22 25 28 28 27 28 31 32 29 30 35 39 39 35 36 43 46 47 53
41 47 57 73 92 104 105 107 114 115 101 88 80 69 55 52 44 34 28 29 33 27 24 23 23 30 29 28 29 28 34 33 34 41 44 47 40 33 34 36 39 43 52
25 19 25 40 64 89 99 106 114 117 104 89 78 67 58 53 50 39 34 37 40 32 31 29 26 28 29 29 30 29 33 35 39 43 44 42 40 34 35 41 42 46 47
24 24 22 24 35 57 87 98 108 113 95 85 69 69 61 52 59 49 42 48 42 38 36 32 35 33 30 32 34 37 36 37 44 40 35 38 40 37 40 48 45 47 54
22 16 23 29 40 41 62 95 101 100 95 84 63 74 67 64 67 58 49 47 43 43 43 40 38 38 44 44 37 34 39 44 49 46 45 36 36 41 46 45 49 56 54
17 14 22 29 37 39 50 80 91 99 103 82 63 72 68 67 72 56 48 48 44 44 43 45 42 34 43 48 41 40 39 39 44 47 34 33 39 45 42 44 54 61 62
10 20 31 34 35 37 50 74 84 92 88 60 59 67 72 68 62 47 48 49 48 47 51 56 32 33 37 43 42 41 39 42 46 39 38 44 40 36 40 48 55 60 57
20 29 38 35 33 36 54 67 76 79 61 54 61 65 60 61 62 45 45 47 50 56 55 51 42 25 34 42 42 37 38 38 31 38 39 35 29 33 39 43 52 53 48
23 43 50 44 30 34 41 57 61 64 57 57 38 46 38 55 51 30 40 53 57 50 50 43 31 30 38 42 37 35 35 30 37 37 37 34 34 34 35 44 49 43 37
20 27 47 34 28 34 43 54 50 37 27 23 19 28 55 41 43 35 53 42 37 35 35 31 24 27 34 31 34 34 31 34 31 33 35 28 25 32 37 43 34 29 30
12 33 36 37 36 44 44 38 30 23 25 16 11 9 51 29 35 43 39 33 31 30 28 23 22 24 28 30 32 34 34 28 27 29 25 23 23 32 40 25 22 25 25
33 36 24 19 18 26 37 35 27 19 14 24 10 34 47 48 42 32 26 31 34 24 22 20 22 25 28 28 27 26 26 26 26 20 18 21 28 29 21 21 18 20 23
Wind_Direction_500mb
196 196 199 200 194 191 195 210 218 214 215 232 243 246 241 237 241 241 247 245 258 266 281 269 304 307 315 313 298 297 298 303 314 317 315 323 333 328 325 313 295 288 270
192 193 198 203 203 201 208 213 209 213 221 232 238 238 236 233 212 211 228 248 255 250 269 286 302 297 293 295 295 297 305 308 321 325 330 338 2 27 322 309 312 302 310
195 194 198 202 205 203 204 198 208 213 225 233 228 226 220 204 216 225 244 239 249 262 272 281 282 287 302 308 296 292 302 308 322 331 336 339 313 326 329 337 339 324 306
195 193 195 194 195 201 200 200 213 215 218 219 222 229 231 223 228 217 213 218 230 268 280 289 297 300 336 327 309 307 308 314 319 327 340 331 321 325 323 324 328 324 322
195 191 194 193 194 198 198 196 200 203 205 211 217 228 225 231 225 218 225 243 264 275 262 284 309 317 321 324 321 330 342 338 342 350 344 337 337 339 329 326 333 330 335
196 194 194 194 194 196 199 203 204 205 206 209 217 234 238 242 237 231 233 244 261 252 255 265 271 286 305 303 313 342 347 342 346 349 347 355 1 344 334 327 331 333 339
194 193 191 194 195 197 203 205 206 207 209 208 215 229 235 236 234 238 244 253 243 237 236 244 271 297 299 314 353 6 346 325 328 325 345 340 337 328 325 322 327 329 331
192 193 195 198 201 200 205 208 208 209 208 209 210 209 208 209 205 205 203 204 225 245 251 262 278 289 308 302 308 305 304 302 309 306 307 315 315 315 316 320 324 331 331
192 192 199 203 204 203 207 212 212 211 207 207 209 206 200 213 215 211 214 226 236 259 250 265 278 291 288 286 294 291 298 293 296 290 293 300 302 306 304 308 308 320 329
193 197 202 202 210 212 210 213 217 212 207 203 213 211 207 206 204 214 226 239 243 240 251 262 273 281 277 279 287 288 293 295 296 286 287 286 299 302 300 301 298 306 318
193 200 201 207 214 215 214 215 216 212 206 204 213 213 212 210 200 203 214 224 228 239 249 261 275 281 286 296 297 291 293 296 294 294 288 291 296 302 300 299 297 299 317
188 201 211 212 214 216 217 216 213 213 210 210 217 213 215 214 209 216 229 239 256 261 271 269 272 286 298 301 301 298 297 296 301 296 289 295 291 299 303 298 293 292 303
197 199 206 211 216 218 221 217 214 215 211 213 221 211 214 210 213 224 229 235 242 241 247 252 270 293 305 303 308 296 299 296 294 302 293 290 292 300 304 302 294 293 299
194 204 202 211 217 220 223 219 215 216 213 217 220 212 213 212 217 222 227 226 225 235 245 255 276 289 295 296 297 300 294 300 296 295 299 303 304 305 298 297 295 294 301
190 198 210 212 218 221 224 222 218 219 213 215 223 216 216 214 217 225 225 223 224 234 249 260 279 288 293 293 295 296 292 294 300 296 298 300 301 302 298 298 297 293 293
203 220 225 228 226 224 225 226 222 219 213 221 221 215 220 215 219 227 221 224 230 231 244 260 280 283 289 294 292 290 295 292 299 299 299 299 300 300 299 297 296 296 294
169 181 215 242 242 228 232 230 224 222 215 219 213 214 208 218 224 228 227 232 237 238 246 256 274 280 291 296 291 288 289 297 306 307 296 291 292 298 300 299 298 297 295
196 218 234 257 243 237 231 230 224 221 215 217 220 214 215 222 226 230 231 236 240 245 251 259 267 277 297 290 300 296 291 294 304 305 310 287 290 295 300 303 300 301 301
198 217 245 264 261 250 238 230 224 223 219 214 222 220 219 224 229 233 239 239 245 252 251 258 270 284 288 296 293 291 289 292 301 301 297 293 287 295 300 304 304 305 308
188 236 264 266 266 262 245 231 226 219 215 218 236 220 223 232 230 238 246 246 248 258 257 255 263 293 299 293 290 293 289 294 305 300 297 288 294 299 301 305 311 311 312
241 266 256 257 267 258 242 228 222 213 214 228 220 223 229 242 239 249 256 255 251 253 256 255 277 298 276 284 285 291 292 297 298 289 300 303 303 302 305 309 312 314 313
248 235 242 248 253 234 224 213 203 206 210 211 213 227 249 253 243 252 260 256 256 252 261 262 275 295 280 272 282 293 296 298 297 304 306 305 301 299 302 310 318 318 313
293 240 230 234 230 223 217 203 193 202 209 212 212 219 220 268 263 269 277 264 258 265 272 284 280 269 265 270 280 283 289 288 303 300 296 292 289 296 303 310 320 320 321
284 253 221 211 197 194 188 191 184 185 173 171 179 256 273 263 269 290 267 255 269 281 285 268 258 263 263 269 276 281 274 288 285 285 288 281 285 293 303 318 325 337 338
256 184 179 164 165 170 175 174 159 138 125 73 25 248 240 242 254 249 261 269 276 266 266 273 271 261 267 275 278 280 281 276 277 283 281 268 280 298 311 322 340 338 340
153 144 139 141 162 169 165 162 176 210 255 306 212 183 237 261 263 259 262 266 260 254 271 268 266 270 284 289 289 291 281 266 265 267 251 280 306 320 329 337 351 354 360
Wind_Speed_850mb
70 64 56 51 45 43 44 42 41 27 30 29 23 19 16 17 20 19 21 27 27 18 18 13 14 23 33 29 28 32 34 32 30 42 41 33 21 17 13 14 15 27 43
70 68 59 56 52 50 45 49 38 34 29 25 19 17 14 15 16 14 15 18 17 17 16 23 31 27 26 26 28 24 23 27 30 32 34 22 21 5 17 17 25 25 24
76 70 63 59 57 57 45 44 41 39 35 29 24 21 17 16 17 16 14 19 16 18 22 23 26 27 19 17 23 27 25 24 25 23 17 11 10 46 28 24 21 23 23
81 76 70 63 56 59 51 47 40 39 36 31 31 27 21 22 22 17 20 21 21 21 19 22 16 3 18 28 20 19 20 19 20 18 17 16 19 18 24 34 33 32 28
89 87 82 72 63 60 58 45 39 41 36 36 31 25 27 29 29 26 24 24 24 20 13 15 10 19 28 24 14 15 14 14 13 15 17 18 18 17 24 33 45 36 33
99 94 86 76 69 66 61 51 47 47 43 37 28 28 30 29 30 32 30 28 31 23 14 15 17 25 29 13 12 11 14 12 12 15 15 15 16 20 22 31 38 42 39
102 101 93 87 79 76 75 63 59 57 51 42 34 31 31 30 29 33 36 35 27 20 19 18 22 26 14 10 6 9 13 15 14 11 12 16 20 22 24 31 34 42 45
101 109 103 98 93 90 86 79 70 69 60 52 46 38 28 21 21 23 20 20 18 23 26 25 22 16 17 14 12 11 13 18 20 20 22 23 25 28 28 30 35 39 43
93 97 110 103 99 99 94 91 83 76 69 62 55 42 24 20 20 17 17 20 25 26 22 21 21 24 21 16 18 17 18 22 26 29 31 30 30 29 28 28 30 37 40
89 99 110 104 100 106 104 98 92 82 75 63 57 42 29 23 21 20 19 22 26 23 23 24 21 17 16 19 20 21 22 24 25 28 29 27 33 32 33 32 32 32 40
96 103 99 109 104 111 111 110 102 89 80 70 62 52 40 31 21 18 18 19 18 18 18 18 18 19 18 19 24 24 23 25 27 27 28 30 32 36 39 39 39 37 42
88 98 105 108 114 115 114 117 109 98 85 75 67 58 46 34 21 19 18 15 13 15 16 18 17 17 19 19 20 18 20 24 29 28 29 34 37 40 42 44 46 45 44
65 83 93 104 108 114 113 120 114 103 89 76 67 63 55 38 24 24 22 16 16 16 19 18 16 17 19 18 18 21 26 29 31 28 31 33 36 43 44 47 49 46 47
69 76 88 95 102 109 112 117 114 106 95 81 66 70 59 40 29 23 21 21 20 21 21 21 18 20 24 25 23 25 28 28 25 33 30 34 39 41 43 47 48 48 50
70 80 80 91 96 100 106 110 112 110 97 86 71 74 57 45 37 28 24 25 27 24 21 22 22 25 28 28 27 28 31 32 29 30 35 39 39 35 36 43 46 47 53
41 47 57 73 92 104 105 107 114 115 101 88 80 69 55 52 44 34 28 29 33 27 24 23 23 30 29 28 29 28 34 33 34 41 44 47 40 33 34 36 39 43 52
25 19 25 40 64 89 99 106 114 117 104 89 78 67 58 53 50 39 34 37 40 32 31 29 26 28 29 29 30 29 33 35 39 43 44 42 40 34 35 41 42 46 47
24 24 22 24 35 57 87 98 108 113 95 85 69 69 61 52 59 49 42 48 42 38 36 32 35 33 30 32 34 37 36 37 44 40 35 38 40 37 40 48 45 47 54
22 16 23 29 40 41 62 95 101 100 95 84 63 74 67 64 67 58 49 47 43 43 43 40 38 38 44 44 37 34 39 44 49 46 45 36 36 41 46 45 49 56 54
17 14 22 29 37 39 50 80 91 99 103 82 63 72 68 67 72 56 48 48 44 44 43 45 42 34 43 48 41 40 39 39 44 47 34 33 39 45 42 44 54 61 62
10 20 31 34 35 37 50 74 84 92 88 60 59 67 72 68 62 47 48 49 48 47 51 56 32 33 37 43 42 41 39 42 46 39 38 44 40 36 40 48 55 60 57
20 29 38 35 33 36 54 67 76 79 61 54 61 65 60 61 62 45 45 47 50 56 55 51 42 25 34 42 42 37 38 38 31 38 39 35 29 33 39 43 52 53 48
23 43 50 44 30 34 41 57 61 64 57 57 38 46 38 55 51 30 40 53 57 50 50 43 31 30 38 42 37 35 35 30 37 37 37 34 34 34 35 44 49 43 37
20 27 47 34 28 34 43 54 50 37 27 23 19 28 55 41 43 35 53 42 37 35 35 31 24 27 34 31 34 34 31 34 31 33 35 28 25 32 37 43 34 29 30
12 33 36 37 36 44 44 38 30 23 25 16 11 9 51 29 35 43 39 33 31 30 28 23 22 24 28 30 32 34 34 28 27 29 25 23 23 32 40 25 22 25 25
33 36 24 19 18 26 37 35 27 19 14 24 10 34 47 48 42 32 26 31 34 24 22 20 22 25 28 28 27 26 26 26 26 20 18 21 28 29 21 21 18 20 23
Wind_Direction_850mb
196 196 199 200 194 191 195 210 218 214 215 232 243 246 241 237 241 241 247 245 258 266 281 269 304 307 315 313 298 297 298 303 314 317 315 323 333 328 325 313 295 288 270
192 193 198 203 203 201 208 213 209 213 221 232 238 238 236 233 212 211 228 248 255 250 269 286 302 297 293 295 295 297 305 308 321 325 330 338 2 27 322 309 312 302 310
195 194 198 202 205 203 204 198 208 213 225 233 228 226 220 204 216 225 244 239 249 262 272 281 282 287 302 308 296 292 302 308 322 331 336 339 313 326 329 337 339 324 306
195 193 195 194 195 201 200 200 213 215 218 219 222 229 231 223 228 217 213 218 230 268 280 289 297 300 336 327 309 307 308 314 319 327 340 331 321 325 323 324 328 324 322
195 191 194 193 194 198 198 196 200 203 205 211 217 228 225 231 225 218 225 243 264 275 262 284 309 317 321 324 321 330 342 338 342 350 344 337 337 339 329 326 333 330 335
196 194 194 194 194 196 199 203 204 205 206 209 217 234 238 242 237 231 233 244 261 252 255 265 271 286 305 303 313 342 347 342 346 349 347 355 1 344 334 327 331 333 339
194 193 191 194 195 197 203 205 206 207 209 208 215 229 235 236 234 238 244 253 243 237 236 244 271 297 299 314 353 6 346 325 328 325 345 340 337 328 325 322 327 329 331
192 193 195 198 201 200 205 208 208 209 208 209 210 209 208 209 205 205 203 204 225 245 251 262 278 289 308 302 308 305 304 302 309 306 307 315 315 315 316 320 324 331 331
192 192 199 203 204 203 207 212 212 211 207 207 209 206 200 213 215 211 214 226 236 259 250 265 278 291 288 286 294 291 298 293 296 290 293 300 302 306 304 308 308 320 329
193 197 202 202 210 212 210 213 217 212 207 203 213 211 207 206 204 214 226 239 243 240 251 262 273 281 277 279 287 288 293 295 296 286 287 286 299 302 300 301 298 306 318
193 200 201 207 214 215 214 215 216 212 206 204 213 213 212 210 200 203 214 224 228 239 249 261 275 281 286 296 297 291 293 296 294 294 288 291 296 302 300 299 297 299 317
188 201 211 212 214 216 217 216 213 213 210 210 217 213 215 214 209 216 229 239 256 261 271 269 272 286 298 301 301 298 297 296 301 296 289 295 291 299 303 298 293 292 303
197 199 206 211 216 218 221 217 214 215 211 213 221 211 214 210 213 224 229 235 242 241 247 252 270 293 305 303 308 296 299 296 294 302 293 290 292 300 304 302 294 293 299
194 204 202 211 217 220 223 219 215 216 213 217 220 212 213 212 217 222 227 226 225 235 245 255 276 289 295 296 297 300 294 300 296 295 299 303 304 305 298 297 295 294 301
190 198 210 212 218 221 224 222 218 219 213 215 223 216 216 214 217 225 225 223 224 234 249 260 279 288 293 293 295 296 292 294 300 296 298 300 301 302 298 298 297 293 293
203 220 225 228 226 224 225 226 222 219 213 221 221 215 220 215 219 227 221 224 230 231 244 260 280 283 289 294 292 290 295 292 299 299 299 299 300 300 299 297 296 296 294
169 181 215 242 242 228 232 230 224 222 215 219 213 214 208 218 224 228 227 232 237 238 246 256 274 280 291 296 291 288 289 297 306 307 296 291 292 298 300 299 298 297 295
196 218 234 257 243 237 231 230 224 221 215 217 220 214 215 222 226 230 231 236 240 245 251 259 267 277 297 290 300 296 291 294 304 305 310 287 290 295 300 303 300 301 301
198 217 245 264 261 250 238 230 224 223 219 214 222 220 219 224 229 233 239 239 245 252 251 258 270 284 288 296 293 291 289 292 301 301 297 293 287 295 300 304 304 305 308
188 236 264 266 266 262 245 231 226 219 215 218 236 220 223 232 230 238 246 246 248 258 257 255 263 293 299 293 290 293 289 294 305 300 297 288 294 299 301 305 311 311 312
241 266 256 257 267 258 242 228 222 213 214 228 220 223 229 242 239 249 256 255 251 253 256 255 277 298 276 284 285 291 292 297 298 289 300 303 303 302 305 309 312 314 313
248 235 242 248 253 234 224 213 203 206 210 211 213 227 249 253 243 252 260 256 256 252 261 262 275 295 280 272 282 293 296 298 297 304 306 305 301 299 302 310 318 318 313
293 240 230 234 230 223 217 203 193 202 209 212 212 219 220 268 263 269 277 264 258 265 272 284 280 269 265 270 280 283 289 288 303 300 296 292 289 296 303 310 320 320 321
284 253 221 211 197 194 188 191 184 185 173 171 179 256 273 263 269 290 267 255 269 281 285 268 258 263 263 269 276 281 274 288 285 285 288 281 285 293 303 318 325 337 338
256 184 179 164 165 170 175 174 159 138 125 73 25 248 240 242 254 249 261 269 276 266 266 273 271 261 267 275 278 280 281 276 277 283 281 268 280 298 311 322 340 338 340
153 144 139 141 162 169 165 162 176 210 255 306 212 183 237 261 263 259 262 266 260 254 271 268 266 270 284 289 289 291 281 266 265 267 251 280 306 320 329 337 351 354 360